Location: Newark
(9.1167°S, 159.8667°E)
Time: 08:38:27
(UTC+00:00)

Envisat - Pass Details

Date: 22 September 2019
Orbit: 764 x 766 km, 98.1° (Epoch: 18 October)

Event Time Altitude Azimuth Distance (km) Brightness Sun altitude
Rises 07:52:00 0° 165° (SSE) 3,240 6.1 -9.6°
Reaches altitude 10° 07:54:20 10° 162° (SSE) 2,310 5.3 -10.2°
Maximum altitude 07:59:24 71° 78° (ENE) 810 2.9 -11.4°
Drops below altitude 10° 08:04:26 10° 355° (N) 2,292 5.5 -12.7°
Sets 08:06:44 0° 352° (N) 3,214 6.3 -13.2°
